Location: Alafon
(8.4500°N, 4.2333°E)
Time: 09:44:40
(UTC+00:00)

A-11 Canister half - Pass Details

Date: 08 August 2021
Orbit: 1515 x 1685 km, 47.2° (Epoch: 21 September)

Event Time Altitude Azimuth Distance (km) Brightness Sun altitude
Rises 11:54:07 0° 218° (SW) 4,651 11.5 82.3°
Reaches altitude 10° 11:57:07 10° 217° (SW) 3,674 11.1 82.2°
Maximum altitude 12:06:23 83° 130° (SE) 1,551 11.0 81.3°
Drops below altitude 10° 12:15:55 10° 43° (NE) 3,769 11.2 80.0°
Sets 12:19:02 0° 42° (NE) 4,777 11.6 79.4°
